User: anonymous   Login
Location: Unspecified
(0.0000°N, 0.0000°E)
Time: 15:23:31
(UTC+00:00)
Language:

NUSAT 2 - Orbit

View from above orbital plane
View from above orbital plane
View from above satellite
View from above satellite

Ground track
Ground track

The orbit data is extracted from the following two-line orbital elements,

1 41558U 16033C   17229.38400741  .00001484  00000-0  58653-4 0  9992
2 41558  97.4635 308.9608 0014667 144.9286 215.2921 15.27025359 67768
Epoch (UTC): 17 August 2017 09:12:58
Eccentricity: 0.0014667
inclination: 97.4635°
perigee height: 474 km
apogee height: 495 km
right ascension of ascending node: 308.9608°
argument of perigee: 144.9286°
revolutions per day: 15.27025359
mean anomaly at epoch: 215.2921°
orbit number at epoch: 6776

The dashed part of the orbit path shows where the satellite is in the earth's shadow,  

DLR